Regional Weather Roundup
Issued by NWS

Home | Current Version | Previous Version | Graphics & Text | Print | Product List | Glossary On
Versions: 1 2 3 4 5 6 7 8 9 10 11 12 13 14 15 16 17 18 19 20 21 22 23 24 25 26 27 28 29 30 31 32 33 34 35 36 37 38 39 40 41 42 43 44 45 46 47 48 49 50
000
ASUS43 KMKX 250110
RWRWI

WISCONSIN REGIONAL WEATHER ROUNDUP
NATIONAL WEATHER SERVICE MILWAUKEE/SULLIVAN WI
700 PM CST SAT JAN 24 2015

NOTE: "FAIR" INDICATES FEW OR NO CLOUDS BELOW 12,000 FEET WITH NO
SIGNIFICANT WEATHER AND/OR OBSTRUCTIONS TO VISIBILITY.

WIZ001-002-006>008-014>016-023>028-250200-
NORTHWEST WISCONSIN

CITY           SKY/WX    TMP DP  RH WIND       PRES   REMARKS
SUPERIOR ARPT  CLOUDY    28  26  90 NE15      29.72R WCI  16
ASHLAND        CLOUDY    24  20  84 NE18      29.73R WCI  10
HAYWARD        CLOUDY    29  24  82 NE12      29.66R WCI  19
SIREN          CLOUDY    35  30  81 CALM      29.63R
CUMBERLAND     CLOUDY    32  30  93 CALM      29.62R
RICE LAKE      CLOUDY    35  31  85 CALM      29.64R
CHETEK         CLOUDY    33  31  91 CALM      29.63R
LADYSMITH      CLOUDY    36  30  80 CALM      29.64R
EAU CLAIRE     CLOUDY    31  27  85 NE3       29.62R
MENOMONIE      CLOUDY    33  31  90 E3        29.63R
NEW RICHMOND   CLOUDY    33  30  88 CALM      29.62R
OSCEOLA        CLOUDY    35  32  89 E3        29.64S
$$

WIZ003>005-009-010-017-018-250200-
NORTH CENTRAL WISCONSIN

CITY           SKY/WX    TMP DP  RH WIND       PRES   REMARKS
MANITOWISH WTR CLOUDY    22  19  89 NE9       29.66R WCI  12
ARBOR VITAE    CLOUDY    27  23  85 NE6       29.65R WCI  20
WOODRUFF       CLOUDY    27  23  85 NE6       29.65R WCI  20
RHINELANDER    CLOUDY    29  24  82 NE9       29.63R WCI  20
EAGLE RIVER    CLOUDY    24  20  85 NE10      29.65R WCI  13
LAND O LAKES   CLOUDY    22  19  88 NE10      29.68R WCI  11
PHILLIPS       CLOUDY    32  29  90 NE9       29.62R WCI  24
TOMAHAWK       CLOUDY    33  28  83 CALM      29.62R
MEDFORD        CLOUDY    33  30  89 CALM      29.60R
MERRILL        CLOUDY    35  30  83 NE6       29.61S WCI  30
$$

WIZ029-030-035-036-043>047-250200-
CENTRAL WISCONSIN

CITY           SKY/WX    TMP DP  RH WIND       PRES   REMARKS
WAUSAU         CLOUDY    35  30  82 CALM      29.60R
MOSINEE        MOCLDY    34  32  93 W3        29.62R
MARSHFIELD     CLOUDY    32  29  88 SW3       29.62R
STEVENS POINT  CLOUDY    31  29  94 CALM      29.63R
WAUPACA        CLOUDY    34  31  88 CALM      29.63S
WAUTOMA        MOCLDY    33  31  93 CALM      29.64S
WISC RAPIDS    CLOUDY    32  28  85 CALM      29.65R
CAMP DOUGLAS   MOCLDY    26  26 100 SE3       29.64R
$$

WIZ011>013-019>022-031-037>040-048>050-250200-
NORTHEAST WISCONSIN

CITY           SKY/WX    TMP DP  RH WIND       PRES   REMARKS
ANTIGO         CLOUDY    33  27  79 NE7       29.61S WCI  27
SHAWANO        CLOUDY    35  31  84 E16       29.65R WCI  25
OCONTO         CLOUDY    29  25  84 E9G17     29.69R WCI  20
STURGEON BAY   CLOUDY    27  21  80 NE10      29.70R WCI  17
GREEN BAY      CLOUDY    30  27  88 NE20      29.67R WCI  17
MANITOWOC      LGT RAIN  35  33  92 W5        29.65R WCI  31
APPLETON       CLOUDY    34  30  86 W6        29.64R WCI  29
CLINTONVILLE   CLOUDY    34  32  93 CALM      29.63S
OSHKOSH        CLOUDY    34  30  85 CALM      29.64S
$$

WIZ032>034-041-042-053>061-250200-
SOUTHWEST WISCONSIN

CITY           SKY/WX    TMP DP  RH WIND       PRES   REMARKS
LA CROSSE      CLOUDY    34  30  85 SE5       29.63R WCI  30
SPARTA         CLOUDY    29  28  94 E3        29.65R
VIROQUA        CLOUDY    37  32  82 CALM      29.61R
BOSCOBEL       HAZE      36  31  82 CALM      29.64R VSB 3/4
PRAIRIE DU CHI CLOUDY    35  31  87 CALM      29.63S
PLATTEVILLE    CLOUDY    36  34  90 S5        29.63S WCI  32
$$

WIZ056-057-062-063-064-067-068-250200-
SOUTH CENTRAL WISCONSIN

CITY           SKY/WX    TMP DP  RH WIND       PRES   REMARKS
REEDSBURG      MOCLDY    31  29  94 NE3       29.64R
BARABOO/DELLS  MOCLDY    30  28  93 E3        29.64R
LONE ROCK      CLOUDY    31  27  85 E3        29.64R
MINERAL POINT  CLOUDY    36  32  87 SW5       29.62S WCI  32
MADISON        MOCLDY    30  27  88 CALM      29.65R
MIDDLETON      MOCLDY    31  30  95 CALM      29.65R
WATERTOWN      CLOUDY    33  31  94 NW5       29.65S WCI  28
MONROE         CLOUDY    32  32 100 SW6       29.63R WCI  26
JANESVILLE     PTCLDY    34  30  86 VRB6      29.64F WCI  29
$$

WIZ051-052-058>065-066-070>072-250200-
SOUTHEAST WISCONSIN

CITY           SKY/WX    TMP DP  RH WIND       PRES   REMARKS
MILWAUKEE      CLOUDY    35  29  78 W8        29.67R WCI  29
WAUKESHA       CLOUDY    32  28  86 W10       29.66R WCI  24
MILWAUKEE/TIMM CLOUDY    34  28  80 W6        29.67R WCI  29
RACINE         CLOUDY    34  29  82 W6        29.68R WCI  29
BURLINGTON     CLOUDY    32  29  90 NW6       29.67R WCI  26
KENOSHA        CLOUDY    33  30  88 W5        29.67R WCI  29
FOND DU LAC    CLOUDY    35  30  82 MISG      29.64F
SHEBOYGAN      CLOUDY    35  31  85 W5        29.64R WCI  31
WEST BEND      CLOUDY    34  30  86 NW5       29.64F WCI  30
JUNEAU         CLOUDY    33  30  88 CALM      29.66S
$$

LSZ147-162-250200-
LAKE SUPERIOR

STATION/POSITION TIME  TEMP    WIND        PRES    WAVE
                       AIR SEA DIR/SP/G            HT/PER
                 (UTC) (F)     (DEG/KT/KT) (MB)    (FT/S)
DEVILS ISLAND    0100   23      80/ 26/ 31 1009.0R
PORT WING        0000   27      70/ 11/ 17 1006.4R
SAXON HARBOR     0000   27      60/ 15/ 18 1006.4
$$

LMZ867-665-643>646-250200-
LAKE MICHIGAN

STATION/POSITION TIME  TEMP    WIND        PRES    WAVE
                       AIR SEA DIR/SP/G            HT/PER
                 (UTC) (F)     (DEG/KT/KT) (MB)    (FT/S)
NORTHPORT PIER   0101   25     360/ 18/ 22 1006.4R
SISTER BAY       0013   26      20/ 13/ 19   N/A
KEWAUNEE LAKESHO 0000   33      40/ 15/ 21 1003.1R
SHEBOYGAN LAKESH 0100   36     290/  4/  5 1004.9R
PORT WASHINGTON  0000   37        CALM     1004.7R
MILWAUKEE LAKESH 0000   36     300/  6/  8   N/A
KENOSHA   LAKESH 0100   34     280/  8/ 11 1005.1R
$$

TC  - TEMPERATURE IN CELSIUS
VSB - VISIBILITY IN STATUTE MILES
WCI - WIND CHILL INDEX
HX  - HEAT INDEX



USA.gov is the U.S. government's official web portal to all federal, state and local government web resources and services.